Find OneWeb SL0679

NORAD ID: 56715 Int'l Des: 2023-068 Owner: ONEWEBN Country: UK Constellation: oneweb operational
LEOCIRCULARPOLARONEWEB_TYPE

Current View

Loading 3D Globe...

About OneWeb SL0679

Description loading...

Upcoming Passes

Passes for default location (London). Set your location on the main map for personalized predictions.

Altitude History

Loading altitude history...

Two-Line Element Set

1 56715U 23068F 26151.22035459 .00000136 00000-0 32174-3 0 9998
2 56715 87.9111 232.1382 0002604 101.1737 258.9686 13.16593934149491
Epoch: May 31, 2026 • Age: 7 hours

Current Status

Altitude 1205.8 km
Velocity 7.25 km/s
Sub-Earth Point -18.57°S, 155°E
Launch Date May 20, 2023
Age 3 years
Type internet

Technical Details

Classification Payload
Mass 148.00 kg
Dry Mass 140.00 kg
Total Mass 148.00 kg
Length 1.30 m
Diameter 1.00 m
Span 5.00 m
Shape Trapezoid+2 pan
Manufacturer ONEWUS
Bus Type ARROW
Phase Status In Orbit
Owner/State ONEWEBN/UK

Most Searched